Time,TemperatureF,DewpointF,PressureIn,WindDirection,WindDirectionDegrees,WindSpeedMPH,WindSpeedGustMPH,Humidity,HourlyPrecipIn,Conditions,Clouds,dailyrainin,SoftwareType,DateUTC
2013-04-27 00:00:00,60.3,21.2,29.92,West,275,0.0,0.0,22,0.00,,,0.00,meteohub,2013-04-27 06:00:00,
2013-04-27 00:05:00,59.5,21.7,29.92,West,275,0.0,0.0,23,0.00,,,0.00,meteohub,2013-04-27 06:05:00,
2013-04-27 00:10:00,58.8,21.0,29.92,West,275,0.0,0.0,23,0.00,,,0.00,meteohub,2013-04-27 06:10:00,
2013-04-27 00:16:00,58.3,23.5,29.92,West,275,0.0,0.0,26,0.00,,,0.00,meteohub,2013-04-27 06:16:00,
2013-04-27 00:21:00,57.7,23.9,29.92,West,275,0.0,0.0,27,0.00,,,0.00,meteohub,2013-04-27 06:21:00,
2013-04-27 00:26:00,57.4,24.6,29.92,West,275,0.0,0.0,28,0.00,,,0.00,meteohub,2013-04-27 06:26:00,
2013-04-27 00:31:00,57.0,21.6,29.92,West,275,0.0,0.0,25,0.00,,,0.00,meteohub,2013-04-27 06:31:00,
2013-04-27 00:37:00,56.8,21.4,29.92,West,275,0.0,0.0,25,0.00,,,0.00,meteohub,2013-04-27 06:37:00,
2013-04-27 00:42:00,56.7,23.0,29.92,West,275,0.0,0.0,27,0.00,,,0.00,meteohub,2013-04-27 06:42:00,
2013-04-27 00:47:00,56.3,25.3,29.92,West,275,0.0,0.0,30,0.00,,,0.00,meteohub,2013-04-27 06:47:00,
2013-04-27 00:52:00,55.9,20.7,29.92,West,275,0.0,0.0,25,0.00,,,0.00,meteohub,2013-04-27 06:52:00,
2013-04-27 00:57:00,56.1,21.7,29.92,West,275,0.0,0.0,26,0.00,,,0.00,meteohub,2013-04-27 06:57:00,
2013-04-27 01:02:00,56.3,23.5,29.91,West,275,0.0,0.0,28,0.00,,,0.00,meteohub,2013-04-27 07:02:00,
2013-04-27 01:07:00,56.5,21.0,29.91,West,275,0.0,0.0,25,0.00,,,0.00,meteohub,2013-04-27 07:07:00,
2013-04-27 01:12:00,56.5,21.9,29.91,West,275,0.0,0.0,26,0.00,,,0.00,meteohub,2013-04-27 07:12:00,
2013-04-27 01:17:00,56.1,21.7,29.91,West,275,0.0,0.0,26,0.00,,,0.00,meteohub,2013-04-27 07:17:00,
2013-04-27 01:22:00,56.1,23.4,29.91,West,275,0.0,0.0,28,0.00,,,0.00,meteohub,2013-04-27 07:22:00,
2013-04-27 01:27:00,56.1,24.3,29.91,West,275,0.0,0.0,29,0.00,,,0.00,meteohub,2013-04-27 07:27:00,
2013-04-27 01:32:00,56.1,24.3,29.91,West,275,0.0,0.0,29,0.00,,,0.00,meteohub,2013-04-27 07:32:00,
2013-04-27 01:37:00,56.1,24.3,29.91,West,275,0.0,0.0,29,0.00,,,0.00,meteohub,2013-04-27 07:37:00,
2013-04-27 01:42:00,55.8,23.9,29.91,West,275,0.0,0.0,29,0.00,,,0.00,meteohub,2013-04-27 07:42:00,
2013-04-27 01:47:00,55.6,24.6,29.91,West,275,0.0,0.0,30,0.00,,,0.00,meteohub,2013-04-27 07:47:00,
2013-04-27 01:52:00,55.2,26.6,29.91,West,275,0.0,0.0,33,0.00,,,0.00,meteohub,2013-04-27 07:52:00,
2013-04-27 01:57:00,55.0,27.1,29.91,West,275,0.0,0.0,34,0.00,,,0.00,meteohub,2013-04-27 07:57:00,
2013-04-27 02:02:00,54.7,28.2,29.91,West,275,0.0,0.0,36,0.00,,,0.00,meteohub,2013-04-27 08:02:00,
2013-04-27 02:07:00,54.5,26.1,29.91,West,275,0.0,0.0,33,0.00,,,0.00,meteohub,2013-04-27 08:07:00,
2013-04-27 02:12:00,54.1,24.1,29.91,West,275,0.0,0.0,31,0.00,,,0.00,meteohub,2013-04-27 08:12:00,
2013-04-27 02:17:00,54.0,24.8,29.91,West,275,0.0,0.0,32,0.00,,,0.00,meteohub,2013-04-27 08:17:00,
2013-04-27 02:22:00,54.0,24.1,29.91,West,275,0.0,0.0,31,0.00,,,0.00,meteohub,2013-04-27 08:22:00,
2013-04-27 02:27:00,54.0,25.5,29.91,West,275,0.0,0.0,33,0.00,,,0.00,meteohub,2013-04-27 08:27:00,
2013-04-27 02:32:00,53.8,24.6,29.91,West,275,0.0,0.0,32,0.00,,,0.00,meteohub,2013-04-27 08:32:00,
2013-04-27 02:37:00,53.8,16.9,29.92,ESE,114,0.0,0.0,23,0.00,,,0.00,meteohub,2013-04-27 08:37:00,
2013-04-27 02:43:00,54.1,17.1,29.91,South,173,0.0,0.0,23,0.00,,,0.00,meteohub,2013-04-27 08:43:00,
2013-04-27 02:48:00,54.3,18.3,29.91,SE,145,0.0,0.0,24,0.00,,,0.00,meteohub,2013-04-27 08:48:00,
2013-04-27 02:53:00,54.3,19.2,29.91,SSE,150,0.0,0.0,25,0.00,,,0.00,meteohub,2013-04-27 08:53:00,
2013-04-27 02:58:00,54.1,20.8,29.91,SE,132,0.0,0.0,27,0.00,,,0.00,meteohub,2013-04-27 08:58:00,
2013-04-27 03:03:00,54.0,21.6,29.91,SE,132,0.0,0.0,28,0.00,,,0.00,meteohub,2013-04-27 09:03:00,
2013-04-27 03:09:00,53.8,22.3,29.91,SE,132,0.0,0.0,29,0.00,,,0.00,meteohub,2013-04-27 09:09:00,
2013-04-27 03:14:00,53.4,22.8,29.91,SE,132,0.0,0.0,30,0.00,,,0.00,meteohub,2013-04-27 09:14:00,
2013-04-27 03:19:00,53.2,23.4,29.91,SE,132,0.0,0.0,31,0.00,,,0.00,meteohub,2013-04-27 09:19:00,
2013-04-27 03:24:00,53.1,22.5,29.91,SE,132,0.0,0.0,30,0.00,,,0.00,meteohub,2013-04-27 09:24:00,
2013-04-27 03:30:00,53.1,24.8,29.91,SE,140,0.0,0.0,33,0.00,,,0.00,meteohub,2013-04-27 09:30:00,
2013-04-27 03:35:00,52.9,24.6,29.91,SSE,149,0.0,0.0,33,0.00,,,0.00,meteohub,2013-04-27 09:35:00,
2013-04-27 03:40:00,53.1,25.3,29.91,SSE,167,0.0,0.0,34,0.00,,,0.00,meteohub,2013-04-27 09:40:00,
2013-04-27 03:45:00,53.1,25.3,29.91,SSE,167,0.0,0.0,34,0.00,,,0.00,meteohub,2013-04-27 09:45:00,
2013-04-27 03:50:00,52.9,24.6,29.91,SSE,167,0.0,0.0,33,0.00,,,0.00,meteohub,2013-04-27 09:50:00,
2013-04-27 03:56:00,52.9,23.0,29.91,South,170,0.0,0.0,31,0.00,,,0.00,meteohub,2013-04-27 09:56:00,
2013-04-27 04:01:00,52.7,22.8,29.91,South,170,0.0,0.0,31,0.00,,,0.00,meteohub,2013-04-27 10:01:00,
2013-04-27 04:06:00,52.5,22.8,29.92,South,171,0.0,0.0,31,0.00,,,0.00,meteohub,2013-04-27 10:06:00,
2013-04-27 04:11:00,52.5,21.9,29.92,South,171,0.0,0.0,30,0.00,,,0.00,meteohub,2013-04-27 10:11:00,
2013-04-27 04:17:00,52.3,21.7,29.92,South,171,0.0,0.0,30,0.00,,,0.00,meteohub,2013-04-27 10:17:00,
2013-04-27 04:22:00,52.3,21.7,29.92,South,171,0.0,0.0,30,0.00,,,0.00,meteohub,2013-04-27 10:22:00,
2013-04-27 04:27:00,52.3,20.1,29.92,South,171,0.0,0.0,28,0.00,,,0.00,meteohub,2013-04-27 10:27:00,
2013-04-27 04:32:00,52.5,21.2,29.93,South,171,0.0,0.0,29,0.00,,,0.00,meteohub,2013-04-27 10:32:00,
2013-04-27 04:37:00,52.9,21.6,29.93,South,171,0.0,0.0,29,0.00,,,0.00,meteohub,2013-04-27 10:37:00,
2013-04-27 04:42:00,52.9,22.3,29.93,South,171,0.0,0.0,30,0.00,,,0.00,meteohub,2013-04-27 10:42:00,
2013-04-27 04:47:00,53.1,21.6,29.93,South,171,0.0,0.0,29,0.00,,,0.00,meteohub,2013-04-27 10:47:00,
2013-04-27 04:52:00,53.2,20.1,29.93,South,175,0.0,0.0,27,0.00,,,0.00,meteohub,2013-04-27 10:52:00,
2013-04-27 04:57:00,53.8,21.4,29.93,South,182,0.0,0.0,28,0.00,,,0.00,meteohub,2013-04-27 10:57:00,
2013-04-27 05:02:00,53.8,21.4,29.94,South,182,0.0,0.0,28,0.00,,,0.00,meteohub,2013-04-27 11:02:00,
2013-04-27 05:08:00,53.6,21.2,29.93,South,182,0.0,0.0,28,0.00,,,0.00,meteohub,2013-04-27 11:08:00,
2013-04-27 05:13:00,53.4,22.8,29.94,South,182,0.0,0.0,30,0.00,,,0.00,meteohub,2013-04-27 11:13:00,
2013-04-27 05:18:00,53.6,23.7,29.94,South,182,0.0,0.0,31,0.00,,,0.00,meteohub,2013-04-27 11:18:00,
2013-04-27 05:24:00,53.2,24.1,29.94,South,182,0.0,0.0,32,0.00,,,0.00,meteohub,2013-04-27 11:24:00,
2013-04-27 05:29:00,53.1,24.8,29.94,South,182,0.0,0.0,33,0.00,,,0.00,meteohub,2013-04-27 11:29:00,
2013-04-27 05:35:00,53.1,22.5,29.95,South,182,0.0,0.0,30,0.00,,,0.00,meteohub,2013-04-27 11:35:00,
2013-04-27 05:40:00,52.9,21.6,29.95,South,182,0.0,0.0,29,0.00,,,0.00,meteohub,2013-04-27 11:40:00,
2013-04-27 05:45:00,52.9,19.8,29.95,SSW,210,0.0,0.0,27,0.00,,,0.00,meteohub,2013-04-27 11:45:00,
2013-04-27 05:51:00,52.9,19.8,29.95,SSW,210,0.0,0.0,27,0.00,,,0.00,meteohub,2013-04-27 11:51:00,
2013-04-27 05:56:00,52.9,18.9,29.95,SSW,210,0.0,0.0,26,0.00,,,0.00,meteohub,2013-04-27 11:56:00,
2013-04-27 06:01:00,52.7,18.7,29.95,SSW,210,0.0,0.0,26,0.00,,,0.00,meteohub,2013-04-27 12:01:00,
2013-04-27 06:06:00,52.5,17.8,29.95,SSW,210,0.0,0.0,25,0.00,,,0.00,meteohub,2013-04-27 12:06:00,
2013-04-27 06:12:00,52.5,17.8,29.96,SSW,210,0.0,0.0,25,0.00,,,0.00,meteohub,2013-04-27 12:12:00,
2013-04-27 06:17:00,52.3,17.6,29.96,SSW,210,0.0,0.0,25,0.00,,,0.00,meteohub,2013-04-27 12:17:00,
2013-04-27 06:22:00,52.5,17.8,29.96,SSW,210,0.0,0.0,25,0.00,,,0.00,meteohub,2013-04-27 12:22:00,
2013-04-27 06:27:00,52.5,17.8,29.96,SSW,210,0.0,0.0,25,0.00,,,0.00,meteohub,2013-04-27 12:27:00,
2013-04-27 06:32:00,52.5,18.7,29.96,SSW,210,0.0,0.0,26,0.00,,,0.00,meteohub,2013-04-27 12:32:00,
2013-04-27 06:37:00,52.3,19.4,29.97,SSW,210,0.0,0.0,27,0.00,,,0.00,meteohub,2013-04-27 12:37:00,
2013-04-27 06:42:00,52.3,20.1,29.97,SSW,210,0.0,0.0,28,0.00,,,0.00,meteohub,2013-04-27 12:42:00,
2013-04-27 06:47:00,52.3,18.5,29.97,SSW,210,0.0,0.0,26,0.00,,,0.00,meteohub,2013-04-27 12:47:00,
2013-04-27 06:52:00,52.5,17.8,29.97,SSW,210,0.0,0.0,25,0.00,,,0.00,meteohub,2013-04-27 12:52:00,
2013-04-27 06:57:00,52.9,19.8,29.97,SSW,210,0.0,0.0,27,0.00,,,0.00,meteohub,2013-04-27 12:57:00,
2013-04-27 07:02:00,53.2,21.0,29.97,SSW,211,0.0,0.0,28,0.00,,,0.00,meteohub,2013-04-27 13:02:00,
2013-04-27 07:07:00,53.8,17.8,29.98,SSW,211,0.0,0.0,24,0.00,,,0.00,meteohub,2013-04-27 13:07:00,
2013-04-27 07:12:00,54.3,18.3,29.98,SSW,211,0.0,0.0,24,0.00,,,0.00,meteohub,2013-04-27 13:12:00,
2013-04-27 07:17:00,55.2,19.0,29.98,SSW,211,0.0,0.0,24,0.00,,,0.00,meteohub,2013-04-27 13:17:00,
2013-04-27 07:23:00,55.9,19.6,29.98,SSW,211,0.0,0.0,24,0.00,,,0.00,meteohub,2013-04-27 13:23:00,
2013-04-27 07:28:00,56.5,18.1,29.98,SSW,213,0.0,0.0,22,0.00,,,0.00,meteohub,2013-04-27 13:28:00,
2013-04-27 07:33:00,56.8,18.3,29.98,SW,235,0.0,0.0,22,0.00,,,0.00,meteohub,2013-04-27 13:33:00,
2013-04-27 07:38:00,57.6,18.0,29.99,SW,235,0.0,0.0,21,0.00,,,0.00,meteohub,2013-04-27 13:38:00,
2013-04-27 07:44:00,58.1,17.2,29.99,SW,235,0.0,0.0,20,0.00,,,0.00,meteohub,2013-04-27 13:44:00,
2013-04-27 07:49:00,58.6,18.9,29.99,SW,235,0.0,0.0,21,0.00,,,0.00,meteohub,2013-04-27 13:49:00,
2013-04-27 07:54:00,59.2,19.2,29.99,WSW,237,0.0,0.0,21,0.00,,,0.00,meteohub,2013-04-27 13:54:00,
2013-04-27 07:59:00,59.4,20.5,29.99,NW,307,0.0,0.0,22,0.00,,,0.00,meteohub,2013-04-27 13:59:00,
2013-04-27 08:05:00,59.5,21.7,29.99,NW,308,0.0,0.0,23,0.00,,,0.00,meteohub,2013-04-27 14:05:00,
2013-04-27 08:10:00,60.3,21.2,29.99,NW,309,0.0,0.0,22,0.00,,,0.00,meteohub,2013-04-27 14:10:00,
2013-04-27 08:15:00,60.8,21.7,29.99,NW,308,0.0,0.0,22,0.00,,,0.00,meteohub,2013-04-27 14:15:00,
2013-04-27 08:20:00,61.5,21.2,29.99,NW,308,0.0,0.0,21,0.00,,,0.00,meteohub,2013-04-27 14:20:00,
2013-04-27 08:25:00,62.2,21.7,29.99,NW,308,0.0,0.0,21,0.00,,,0.00,meteohub,2013-04-27 14:25:00,
2013-04-27 08:31:00,62.8,22.3,29.99,NW,308,0.0,0.0,21,0.00,,,0.00,meteohub,2013-04-27 14:31:00,
2013-04-27 08:36:00,63.1,23.7,29.99,NW,308,0.0,0.0,22,0.00,,,0.00,meteohub,2013-04-27 14:36:00,
2013-04-27 08:41:00,63.7,25.2,29.99,NW,308,0.0,0.0,23,0.00,,,0.00,meteohub,2013-04-27 14:41:00,
2013-04-27 08:46:00,64.0,23.4,29.99,NW,307,0.0,0.0,21,0.00,,,0.00,meteohub,2013-04-27 14:46:00,
2013-04-27 08:52:00,63.5,22.8,29.98,WNW,291,0.0,0.0,21,0.00,,,0.00,meteohub,2013-04-27 14:52:00,
2013-04-27 08:57:00,63.9,24.3,29.98,WNW,291,0.0,0.0,22,0.00,,,0.00,meteohub,2013-04-27 14:57:00,
2013-04-27 09:02:00,64.8,26.1,29.98,WNW,291,0.0,0.0,23,0.00,,,0.00,meteohub,2013-04-27 15:02:00,
2013-04-27 09:07:00,65.5,24.4,29.98,WNW,291,0.0,0.0,21,0.00,,,0.00,meteohub,2013-04-27 15:07:00,
2013-04-27 09:12:00,66.2,25.2,29.98,WNW,291,0.0,0.0,21,0.00,,,0.00,meteohub,2013-04-27 15:12:00,
2013-04-27 09:17:00,66.6,25.3,29.98,WNW,291,0.0,0.0,21,0.00,,,0.00,meteohub,2013-04-27 15:17:00,
2013-04-27 09:22:00,67.3,27.1,29.98,WNW,291,0.0,0.0,22,0.00,,,0.00,meteohub,2013-04-27 15:22:00,
2013-04-27 09:27:00,68.4,28.0,29.98,WNW,291,0.0,0.0,22,0.00,,,0.00,meteohub,2013-04-27 15:27:00,
2013-04-27 09:32:00,69.3,27.7,29.98,WNW,291,0.0,0.0,21,0.00,,,0.00,meteohub,2013-04-27 15:32:00,
2013-04-27 09:37:00,69.8,28.0,29.98,WNW,291,0.0,0.0,21,0.00,,,0.00,meteohub,2013-04-27 15:37:00,
2013-04-27 09:42:00,69.4,27.9,29.98,West,275,0.0,0.0,21,0.00,,,0.00,meteohub,2013-04-27 15:42:00,
2013-04-27 09:47:00,69.3,27.7,29.97,West,269,0.0,0.0,21,0.00,,,0.00,meteohub,2013-04-27 15:47:00,
2013-04-27 09:52:00,69.8,30.4,29.97,West,269,0.0,0.0,23,0.00,,,0.00,meteohub,2013-04-27 15:52:00,
2013-04-27 09:57:00,70.0,28.2,29.97,West,269,0.0,0.0,21,0.00,,,0.00,meteohub,2013-04-27 15:57:00,
2013-04-27 10:02:00,70.3,28.6,29.97,West,273,0.0,0.0,21,0.00,,,0.00,meteohub,2013-04-27 16:02:00,
2013-04-27 10:07:00,70.3,28.6,29.97,West,273,0.0,0.0,21,0.00,,,0.00,meteohub,2013-04-27 16:07:00,
2013-04-27 10:12:00,71.1,28.0,29.97,West,273,0.0,0.0,20,0.00,,,0.00,meteohub,2013-04-27 16:12:00,
2013-04-27 10:17:00,71.8,29.7,29.97,West,273,0.0,0.0,21,0.00,,,0.00,meteohub,2013-04-27 16:17:00,
2013-04-27 10:22:00,72.9,29.5,29.97,West,273,0.0,0.0,20,0.00,,,0.00,meteohub,2013-04-27 16:22:00,
2013-04-27 10:27:00,73.9,30.4,29.97,West,273,0.0,0.0,20,0.00,,,0.00,meteohub,2013-04-27 16:27:00,
2013-04-27 10:32:00,74.7,29.7,29.97,West,273,0.0,0.0,19,0.00,,,0.00,meteohub,2013-04-27 16:32:00,
2013-04-27 10:37:00,74.8,29.8,29.96,West,273,0.0,0.0,19,0.00,,,0.00,meteohub,2013-04-27 16:37:00,
2013-04-27 10:42:00,75.7,29.3,29.96,West,259,0.0,0.0,18,0.00,,,0.00,meteohub,2013-04-27 16:42:00,
2013-04-27 10:47:00,75.2,27.3,29.96,West,269,0.0,0.0,17,0.00,,,0.00,meteohub,2013-04-27 16:47:00,
2013-04-27 10:52:00,74.7,28.4,29.96,West,269,0.0,0.0,18,0.00,,,0.00,meteohub,2013-04-27 16:52:00,
2013-04-27 10:57:00,75.0,28.6,29.96,West,269,0.0,0.0,18,0.00,,,0.00,meteohub,2013-04-27 16:57:00,
2013-04-27 11:02:00,75.6,30.4,29.96,West,268,0.0,0.0,19,0.00,,,0.00,meteohub,2013-04-27 17:02:00,
2013-04-27 11:07:00,76.1,29.5,29.96,West,268,0.0,0.0,18,0.00,,,0.00,meteohub,2013-04-27 17:07:00,
2013-04-27 11:12:00,77.2,27.5,29.96,West,268,0.0,0.0,16,0.00,,,0.00,meteohub,2013-04-27 17:12:00,
2013-04-27 11:18:00,77.9,28.0,29.95,East,98,0.0,0.0,16,0.00,,,0.00,meteohub,2013-04-27 17:18:00,
2013-04-27 11:23:00,78.1,26.6,29.96,East,88,0.0,0.0,15,0.00,,,0.00,meteohub,2013-04-27 17:23:00,
2013-04-27 11:28:00,78.3,28.4,29.95,East,88,0.0,0.0,16,0.00,,,0.00,meteohub,2013-04-27 17:28:00,
2013-04-27 11:33:00,78.3,26.8,29.95,SSW,195,0.0,0.0,15,0.00,,,0.00,meteohub,2013-04-27 17:33:00,
2013-04-27 11:38:00,78.6,27.1,29.95,South,188,0.0,0.0,15,0.00,,,0.00,meteohub,2013-04-27 17:38:00,
2013-04-27 11:44:00,79.2,27.5,29.95,West,272,0.0,0.0,15,0.00,,,0.00,meteohub,2013-04-27 17:44:00,
2013-04-27 11:49:00,78.4,28.6,29.95,West,262,0.0,0.0,16,0.00,,,0.00,meteohub,2013-04-27 17:49:00,
2013-04-27 11:54:00,78.1,26.6,29.94,WSW,254,0.0,0.0,15,0.00,,,0.00,meteohub,2013-04-27 17:54:00,
2013-04-27 11:59:00,78.1,28.2,29.94,West,262,0.0,0.0,16,0.00,,,0.00,meteohub,2013-04-27 17:59:00,
2013-04-27 12:05:00,78.3,28.4,29.94,West,261,0.0,0.0,16,0.00,,,0.00,meteohub,2013-04-27 18:05:00,
2013-04-27 12:10:00,78.8,27.3,29.94,WSW,246,0.0,0.0,15,0.00,,,0.00,meteohub,2013-04-27 18:10:00,
2013-04-27 12:15:00,79.0,27.3,29.93,WSW,246,0.0,0.0,15,0.00,,,0.00,meteohub,2013-04-27 18:15:00,
2013-04-27 12:20:00,80.1,31.3,29.93,WSW,249,0.0,0.0,17,0.00,,,0.00,meteohub,2013-04-27 18:20:00,
2013-04-27 12:26:00,81.0,23.5,29.93,WSW,242,0.0,0.0,12,0.00,,,0.00,meteohub,2013-04-27 18:26:00,
2013-04-27 12:31:00,80.2,28.4,29.93,West,267,0.0,0.0,15,0.00,,,0.00,meteohub,2013-04-27 18:31:00,
2013-04-27 12:36:00,80.6,28.8,29.92,West,263,0.0,0.0,15,0.00,,,0.00,meteohub,2013-04-27 18:36:00,
2013-04-27 12:41:00,80.6,25.2,29.92,WSW,256,0.0,0.0,13,0.00,,,0.00,meteohub,2013-04-27 18:41:00,
2013-04-27 12:46:00,80.2,26.8,29.92,WSW,255,0.0,0.0,14,0.00,,,0.00,meteohub,2013-04-27 18:46:00,
2013-04-27 12:52:00,80.4,26.8,29.91,West,266,0.0,0.0,14,0.00,,,0.00,meteohub,2013-04-27 18:52:00,
2013-04-27 12:57:00,80.4,28.6,29.91,West,270,0.0,0.0,15,0.00,,,0.00,meteohub,2013-04-27 18:57:00,
2013-04-27 13:02:00,81.1,30.7,29.91,West,271,0.0,0.0,16,0.00,,,0.00,meteohub,2013-04-27 19:02:00,
2013-04-27 13:07:00,81.3,27.5,29.90,WSW,250,0.0,0.0,14,0.00,,,0.00,meteohub,2013-04-27 19:07:00,
2013-04-27 13:13:00,80.6,25.2,29.90,West,273,0.0,0.0,13,0.00,,,0.00,meteohub,2013-04-27 19:13:00,
2013-04-27 13:18:00,79.9,26.4,29.90,WSW,258,0.0,0.0,14,0.00,,,0.00,meteohub,2013-04-27 19:18:00,
2013-04-27 13:23:00,79.7,29.5,29.89,West,266,0.0,0.0,16,0.00,,,0.00,meteohub,2013-04-27 19:23:00,
2013-04-27 13:28:00,80.2,26.8,29.89,West,265,0.0,0.0,14,0.00,,,0.00,meteohub,2013-04-27 19:28:00,
2013-04-27 13:34:00,80.2,25.0,29.89,West,276,0.0,0.0,13,0.00,,,0.00,meteohub,2013-04-27 19:34:00,
2013-04-27 13:39:00,80.4,26.8,29.88,West,276,0.0,0.0,14,0.00,,,0.00,meteohub,2013-04-27 19:39:00,
2013-04-27 13:44:00,81.9,29.7,29.88,West,276,0.0,0.0,15,0.00,,,0.00,meteohub,2013-04-27 19:44:00,
2013-04-27 13:49:00,83.5,29.3,29.88,West,270,0.0,0.0,14,0.00,,,0.00,meteohub,2013-04-27 19:49:00,
2013-04-27 13:54:00,82.0,24.4,29.87,WSW,248,0.0,0.0,12,0.00,,,0.00,meteohub,2013-04-27 19:54:00,
2013-04-27 14:00:00,81.9,26.2,29.87,WNW,294,0.0,0.0,13,0.00,,,0.00,meteohub,2013-04-27 20:00:00,
2013-04-27 14:05:00,82.0,26.4,29.87,SW,230,0.0,0.0,13,0.00,,,0.00,meteohub,2013-04-27 20:05:00,
2013-04-27 14:10:00,82.6,26.8,29.87,SSW,196,0.0,0.0,13,0.00,,,0.00,meteohub,2013-04-27 20:10:00,
2013-04-27 14:15:00,82.8,22.8,29.86,East,98,0.0,0.0,11,0.00,,,0.00,meteohub,2013-04-27 20:15:00,
2013-04-27 14:21:00,82.8,22.8,29.86,ESE,104,0.0,0.0,11,0.00,,,0.00,meteohub,2013-04-27 20:21:00,
2013-04-27 14:26:00,83.1,20.8,29.86,ESE,111,0.0,0.0,10,0.00,,,0.00,meteohub,2013-04-27 20:26:00,
2013-04-27 14:31:00,83.1,20.8,29.86,South,190,0.0,0.0,10,0.00,,,0.00,meteohub,2013-04-27 20:31:00,
2013-04-27 14:36:00,82.9,23.0,29.85,WSW,254,0.0,0.0,11,0.00,,,0.00,meteohub,2013-04-27 20:36:00,
2013-04-27 14:41:00,82.6,18.0,29.85,SSE,157,0.0,0.0,9,0.00,,,0.00,meteohub,2013-04-27 20:41:00,
2013-04-27 14:46:00,83.1,20.8,29.85,South,186,0.0,0.0,10,0.00,,,0.00,meteohub,2013-04-27 20:46:00,
2013-04-27 14:52:00,83.5,21.2,29.85,West,271,0.0,0.0,10,0.00,,,0.00,meteohub,2013-04-27 20:52:00,
2013-04-27 14:57:00,82.6,18.0,29.85,West,273,0.0,0.0,9,0.00,,,0.00,meteohub,2013-04-27 20:57:00,
2013-04-27 15:02:00,83.1,18.5,29.84,WSW,252,0.0,0.0,9,0.00,,,0.00,meteohub,2013-04-27 21:02:00,
2013-04-27 15:07:00,83.3,18.5,29.84,East,88,0.0,0.0,9,0.00,,,0.00,meteohub,2013-04-27 21:07:00,
2013-04-27 15:12:00,83.1,18.5,29.84,East,94,0.0,0.0,9,0.00,,,0.00,meteohub,2013-04-27 21:12:00,
2013-04-27 15:17:00,84.0,21.6,29.83,ESE,111,0.0,0.0,10,0.00,,,0.00,meteohub,2013-04-27 21:17:00,
2013-04-27 15:22:00,84.9,26.6,29.83,SE,127,0.0,0.0,12,0.00,,,0.00,meteohub,2013-04-27 21:22:00,
2013-04-27 15:27:00,84.7,26.4,29.83,West,274,0.0,0.0,12,0.00,,,0.00,meteohub,2013-04-27 21:27:00,
2013-04-27 15:32:00,84.0,19.0,29.83,West,266,0.0,0.0,9,0.00,,,0.00,meteohub,2013-04-27 21:32:00,
2013-04-27 15:37:00,83.5,21.2,29.83,West,261,0.0,0.0,10,0.00,,,0.00,meteohub,2013-04-27 21:37:00,
2013-04-27 15:42:00,82.8,20.7,29.82,West,259,0.0,0.0,10,0.00,,,0.00,meteohub,2013-04-27 21:42:00,
2013-04-27 15:47:00,82.6,20.5,29.82,West,263,0.0,0.0,10,0.00,,,0.00,meteohub,2013-04-27 21:47:00,
2013-04-27 15:52:00,83.1,18.5,29.82,SW,219,0.0,0.0,9,0.00,,,0.00,meteohub,2013-04-27 21:52:00,
2013-04-27 15:57:00,83.8,16.3,29.82,ESE,119,0.0,0.0,8,0.00,,,0.00,meteohub,2013-04-27 21:57:00,
2013-04-27 16:02:00,84.0,16.3,29.81,ESE,111,0.0,0.0,8,0.00,,,0.00,meteohub,2013-04-27 22:02:00,
2013-04-27 16:07:00,84.0,16.3,29.81,ESE,115,0.0,0.0,8,0.00,,,0.00,meteohub,2013-04-27 22:07:00,
2013-04-27 16:12:00,84.0,19.0,29.81,SSW,194,0.0,0.0,9,0.00,,,0.00,meteohub,2013-04-27 22:12:00,
2013-04-27 16:17:00,83.8,19.0,29.81,SSW,213,0.0,0.0,9,0.00,,,0.00,meteohub,2013-04-27 22:17:00,
2013-04-27 16:22:00,84.0,19.0,29.81,ESE,108,0.0,0.0,9,0.00,,,0.00,meteohub,2013-04-27 22:22:00,
2013-04-27 16:27:00,84.6,16.9,29.81,ESE,109,0.0,0.0,8,0.00,,,0.00,meteohub,2013-04-27 22:27:00,
2013-04-27 16:32:00,84.6,19.6,29.81,ESE,109,0.0,0.0,9,0.00,,,0.00,meteohub,2013-04-27 22:32:00,
2013-04-27 16:37:00,84.7,19.6,29.81,East,97,0.0,0.0,9,0.00,,,0.00,meteohub,2013-04-27 22:37:00,
2013-04-27 16:42:00,84.9,19.8,29.80,West,273,0.0,0.0,9,0.00,,,0.00,meteohub,2013-04-27 22:42:00,
2013-04-27 16:47:00,85.3,22.6,29.80,West,273,0.0,0.0,10,0.00,,,0.00,meteohub,2013-04-27 22:47:00,
2013-04-27 16:52:00,85.5,22.6,29.80,West,273,0.0,0.0,10,0.00,,,0.00,meteohub,2013-04-27 22:52:00,
2013-04-27 16:58:00,84.7,22.1,29.80,WSW,246,0.0,0.0,10,0.00,,,0.00,meteohub,2013-04-27 22:58:00,
2013-04-27 17:03:00,84.7,19.6,29.80,WSW,247,0.0,0.0,9,0.00,,,0.00,meteohub,2013-04-27 23:03:00,
2013-04-27 17:08:00,84.7,19.6,29.80,WSW,247,0.0,0.0,9,0.00,,,0.00,meteohub,2013-04-27 23:08:00,
2013-04-27 17:13:00,85.3,22.6,29.80,WSW,247,0.0,0.0,10,0.00,,,0.00,meteohub,2013-04-27 23:13:00,
2013-04-27 17:19:00,85.3,20.1,29.80,ESE,111,0.0,0.0,9,0.00,,,0.00,meteohub,2013-04-27 23:19:00,
2013-04-27 17:24:00,84.9,22.3,29.79,West,276,0.0,0.0,10,0.00,,,0.00,meteohub,2013-04-27 23:24:00,
2013-04-27 17:29:00,84.9,19.8,29.79,West,275,0.0,0.0,9,0.00,,,0.00,meteohub,2013-04-27 23:29:00,
2013-04-27 17:34:00,84.0,19.0,29.79,WSW,252,0.0,0.0,9,0.00,,,0.00,meteohub,2013-04-27 23:34:00,
2013-04-27 17:39:00,84.0,19.0,29.79,SSW,213,0.0,0.0,9,0.00,,,0.00,meteohub,2013-04-27 23:39:00,
2013-04-27 17:45:00,84.0,19.0,29.79,West,262,0.0,0.0,9,0.00,,,0.00,meteohub,2013-04-27 23:45:00,
2013-04-27 17:50:00,84.2,21.7,29.79,West,263,0.0,0.0,10,0.00,,,0.00,meteohub,2013-04-27 23:50:00,
2013-04-27 17:55:00,84.4,19.4,29.79,South,183,0.0,0.0,9,0.00,,,0.00,meteohub,2013-04-27 23:55:00,
2013-04-27 18:01:00,83.7,16.2,29.78,SSW,209,0.0,0.0,8,0.00,,,0.00,meteohub,2013-04-28 00:01:00,
2013-04-27 18:06:00,83.5,21.2,29.79,SSW,209,0.0,0.0,10,0.00,,,0.00,meteohub,2013-04-28 00:06:00,
2013-04-27 18:12:00,83.5,18.7,29.78,West,264,0.0,0.0,9,0.00,,,0.00,meteohub,2013-04-28 00:12:00,
2013-04-27 18:17:00,83.7,21.4,29.78,West,267,0.0,0.0,10,0.00,,,0.00,meteohub,2013-04-28 00:17:00,
2013-04-27 18:22:00,83.8,19.0,29.78,West,267,0.0,0.0,9,0.00,,,0.00,meteohub,2013-04-28 00:22:00,
2013-04-27 18:27:00,83.8,16.3,29.78,SE,146,0.0,0.0,8,0.00,,,0.00,meteohub,2013-04-28 00:27:00,
2013-04-27 18:33:00,84.0,19.0,29.78,SSE,153,0.0,0.0,9,0.00,,,0.00,meteohub,2013-04-28 00:33:00,
2013-04-27 18:38:00,83.7,16.2,29.78,SW,225,0.0,0.0,8,0.00,,,0.00,meteohub,2013-04-28 00:38:00,
2013-04-27 18:43:00,83.5,16.0,29.78,SW,225,0.0,0.0,8,0.00,,,0.00,meteohub,2013-04-28 00:43:00,
2013-04-27 18:48:00,83.5,18.7,29.78,SW,230,0.0,0.0,9,0.00,,,0.00,meteohub,2013-04-28 00:48:00,
2013-04-27 18:54:00,83.1,18.5,29.78,SW,230,0.0,0.0,9,0.00,,,0.00,meteohub,2013-04-28 00:54:00,
2013-04-27 18:59:00,82.9,15.6,29.78,SW,229,0.0,0.0,8,0.00,,,0.00,meteohub,2013-04-28 00:59:00,
2013-04-27 19:04:00,82.8,18.1,29.78,SW,229,0.0,0.0,9,0.00,,,0.00,meteohub,2013-04-28 01:04:00,
2013-04-27 19:09:00,82.6,18.0,29.78,SW,229,0.0,0.0,9,0.00,,,0.00,meteohub,2013-04-28 01:09:00,
2013-04-27 19:15:00,82.4,20.3,29.78,SW,229,0.0,0.0,10,0.00,,,0.00,meteohub,2013-04-28 01:15:00,
2013-04-27 19:20:00,82.2,20.3,29.78,SW,229,0.0,0.0,10,0.00,,,0.00,meteohub,2013-04-28 01:20:00,
2013-04-27 19:25:00,81.9,17.4,29.78,SW,229,0.0,0.0,9,0.00,,,0.00,meteohub,2013-04-28 01:25:00,
2013-04-27 19:30:00,81.5,19.8,29.78,SW,229,0.0,0.0,10,0.00,,,0.00,meteohub,2013-04-28 01:30:00,
2013-04-27 19:35:00,81.0,19.2,29.78,SW,229,0.0,0.0,10,0.00,,,0.00,meteohub,2013-04-28 01:35:00,
2013-04-27 19:41:00,80.2,23.0,29.78,SW,229,0.0,0.0,12,0.00,,,0.00,meteohub,2013-04-28 01:41:00,
2013-04-27 19:46:00,79.5,22.5,29.78,SW,229,0.0,0.0,12,0.00,,,0.00,meteohub,2013-04-28 01:46:00,
2013-04-27 19:51:00,78.6,25.5,29.78,SW,229,0.0,0.0,14,0.00,,,0.00,meteohub,2013-04-28 01:51:00,
2013-04-27 19:56:00,77.9,24.8,29.78,SW,229,0.0,0.0,14,0.00,,,0.00,meteohub,2013-04-28 01:56:00,
2013-04-27 20:02:00,76.8,25.7,29.78,SW,229,0.0,0.0,15,0.00,,,0.00,meteohub,2013-04-28 02:02:00,
2013-04-27 20:07:00,75.9,23.4,29.78,SW,229,0.0,0.0,14,0.00,,,0.00,meteohub,2013-04-28 02:07:00,
2013-04-27 20:12:00,75.2,24.4,29.78,SW,229,0.0,0.0,15,0.00,,,0.00,meteohub,2013-04-28 02:12:00,
2013-04-27 20:17:00,74.7,23.9,29.78,SW,229,0.0,0.0,15,0.00,,,0.00,meteohub,2013-04-28 02:17:00,
2013-04-27 20:22:00,74.1,26.6,29.78,SW,229,0.0,0.0,17,0.00,,,0.00,meteohub,2013-04-28 02:22:00,
2013-04-27 20:28:00,73.9,27.7,29.78,SW,229,0.0,0.0,18,0.00,,,0.00,meteohub,2013-04-28 02:28:00,
2013-04-27 20:33:00,73.6,26.1,29.78,SW,229,0.0,0.0,17,0.00,,,0.00,meteohub,2013-04-28 02:33:00,
2013-04-27 20:38:00,73.0,22.6,29.78,SW,229,0.0,0.0,15,0.00,,,0.00,meteohub,2013-04-28 02:38:00,
2013-04-27 20:43:00,72.5,23.7,29.78,SW,229,0.0,0.0,16,0.00,,,0.00,meteohub,2013-04-28 02:43:00,
2013-04-27 20:48:00,72.1,26.2,29.78,SW,229,0.0,0.0,18,0.00,,,0.00,meteohub,2013-04-28 02:48:00,
2013-04-27 20:53:00,72.0,27.5,29.78,SW,229,0.0,0.0,19,0.00,,,0.00,meteohub,2013-04-28 02:53:00,
2013-04-27 20:58:00,71.8,28.6,29.79,SW,229,0.0,0.0,20,0.00,,,0.00,meteohub,2013-04-28 02:58:00,
2013-04-27 21:03:00,71.4,27.0,29.79,SW,229,0.0,0.0,19,0.00,,,0.00,meteohub,2013-04-28 03:03:00,
2013-04-27 21:09:00,71.1,26.8,29.79,SW,229,0.0,0.0,19,0.00,,,0.00,meteohub,2013-04-28 03:09:00,
2013-04-27 21:14:00,70.5,26.2,29.79,SW,229,0.0,0.0,19,0.00,,,0.00,meteohub,2013-04-28 03:14:00,
2013-04-27 21:19:00,70.3,27.3,29.79,SW,229,0.0,0.0,20,0.00,,,0.00,meteohub,2013-04-28 03:19:00,
2013-04-27 21:24:00,69.8,28.0,29.79,SW,229,0.0,0.0,21,0.00,,,0.00,meteohub,2013-04-28 03:24:00,
2013-04-27 21:29:00,69.3,28.8,29.79,SW,229,0.0,0.0,22,0.00,,,0.00,meteohub,2013-04-28 03:29:00,
2013-04-27 21:35:00,68.5,29.3,29.79,SW,229,0.0,0.0,23,0.00,,,0.00,meteohub,2013-04-28 03:35:00,
2013-04-27 21:40:00,68.2,28.9,29.79,SW,229,0.0,0.0,23,0.00,,,0.00,meteohub,2013-04-28 03:40:00,
2013-04-27 21:45:00,67.8,21.4,29.80,SE,136,0.0,0.0,17,0.00,,,0.00,meteohub,2013-04-28 03:45:00,
2013-04-27 21:50:00,67.5,18.1,29.80,ESE,108,0.0,0.0,15,0.00,,,0.00,meteohub,2013-04-28 03:50:00,
2013-04-27 21:56:00,67.1,20.8,29.80,ESE,108,0.0,0.0,17,0.00,,,0.00,meteohub,2013-04-28 03:56:00,
2013-04-27 22:01:00,66.9,17.8,29.80,ESE,108,0.0,0.0,15,0.00,,,0.00,meteohub,2013-04-28 04:01:00,
2013-04-27 22:02:00,66.9,19.2,29.81,ESE,108,0.0,0.0,16,0.00,,,0.00,meteohub,2013-04-28 04:02:00,
2013-04-27 22:03:00,66.9,17.8,29.81,ESE,108,0.0,0.0,15,0.00,,,0.00,meteohub,2013-04-28 04:03:00,
2013-04-27 22:08:00,67.3,16.5,29.81,ESE,107,0.0,0.0,14,0.00,,,0.00,meteohub,2013-04-28 04:08:00,
2013-04-27 22:13:00,67.8,16.9,29.81,ESE,107,0.0,0.0,14,0.00,,,0.00,meteohub,2013-04-28 04:13:00,
2013-04-27 22:18:00,68.4,17.2,29.81,ESE,108,0.0,0.0,14,0.00,,,0.00,meteohub,2013-04-28 04:18:00,
2013-04-27 22:23:00,68.5,19.0,29.81,ESE,108,0.0,0.0,15,0.00,,,0.00,meteohub,2013-04-28 04:23:00,
2013-04-27 22:28:00,68.4,18.9,29.81,ESE,107,0.0,0.0,15,0.00,,,0.00,meteohub,2013-04-28 04:28:00,
2013-04-27 22:34:00,67.8,21.4,29.81,ESE,108,0.0,0.0,17,0.00,,,0.00,meteohub,2013-04-28 04:34:00,
2013-04-27 22:39:00,67.3,22.3,29.81,ESE,107,0.0,0.0,18,0.00,,,0.00,meteohub,2013-04-28 04:39:00,
2013-04-27 22:44:00,66.7,20.5,29.81,ESE,107,0.0,0.0,17,0.00,,,0.00,meteohub,2013-04-28 04:44:00,
2013-04-27 22:49:00,66.4,20.3,29.81,ESE,108,0.0,0.0,17,0.00,,,0.00,meteohub,2013-04-28 04:49:00,
2013-04-27 22:55:00,65.8,21.2,29.81,ESE,108,0.0,0.0,18,0.00,,,0.00,meteohub,2013-04-28 04:55:00,
2013-04-27 23:00:00,65.1,23.0,29.81,ESE,107,0.0,0.0,20,0.00,,,0.00,meteohub,2013-04-28 05:00:00,
2013-04-27 23:05:00,64.8,22.8,29.81,ESE,109,0.0,0.0,20,0.00,,,0.00,meteohub,2013-04-28 05:05:00,
2013-04-27 23:10:00,64.8,22.8,29.81,ESE,109,0.0,0.0,20,0.00,,,0.00,meteohub,2013-04-28 05:10:00,
2013-04-27 23:15:00,64.4,24.8,29.81,ESE,109,0.0,0.0,22,0.00,,,0.00,meteohub,2013-04-28 05:15:00,
2013-04-27 23:21:00,64.0,24.4,29.81,ESE,109,0.0,0.0,22,0.00,,,0.00,meteohub,2013-04-28 05:21:00,
2013-04-27 23:26:00,63.5,26.1,29.81,ESE,109,0.0,0.0,24,0.00,,,0.00,meteohub,2013-04-28 05:26:00,
2013-04-27 23:31:00,63.1,25.7,29.81,ESE,109,0.0,0.0,24,0.00,,,0.00,meteohub,2013-04-28 05:31:00,
2013-04-27 23:36:00,62.8,27.3,29.80,ESE,109,0.0,0.0,26,0.00,,,0.00,meteohub,2013-04-28 05:36:00,
2013-04-27 23:42:00,62.4,28.0,29.81,ESE,109,0.0,0.0,27,0.00,,,0.00,meteohub,2013-04-28 05:42:00,
2013-04-27 23:47:00,62.1,28.6,29.80,ESE,109,0.0,0.0,28,0.00,,,0.00,meteohub,2013-04-28 05:47:00,
2013-04-27 23:52:00,61.3,28.8,29.80,ESE,109,0.0,0.0,29,0.00,,,0.00,meteohub,2013-04-28 05:52:00,
2013-04-27 23:57:00,61.0,29.3,29.80,ESE,109,0.0,0.0,30,0.00,,,0.00,meteohub,2013-04-28 05:57:00,